Weather History for Punta Gorda, FL

Change the Weather History Date:

Wednesday, December 5, 2012

  Actual Average Record
Temperature  
Mean Temperature 66 °F -  
Max Temperature 79 °F 75 °F 84 °F (1998)
Min Temperature 54 °F 54 °F 42 °F (2007)
Cooling Degree Days 2    
Growing Degree Days 16 (Base 50)    
Moisture  
Dew Point 59 °F    
Average Humidity 85    
Maximum Humidity 100    
Minimum Humidity 50    
Precipitation  
Precipitation 0.00 in - - ()
Sea Level Pressure  
Sea Level Pressure 30.11 in    
Wind  
Wind Speed 3 mph (ENE)    
Max Wind Speed 9 mph    
Max Gust Speed -    
Visibility 7 miles    
Events Fog    
Averages and records for this station are not official NWS values.
T = Trace of Precipitation, MM = Missing Value Source: NWS Daily Summary

Daily Weather History Graph

Daily Weather History Graph

Search for Another Location

Airport:

Trip Planner

Search our weather history database for the weather conditions in past years. The results will help you decide how hot, cold, wet, or windy it might be!

Date:

Astronomy

Dec. 05, 2012 Rise Set
Actual Time 7:03 AM EST 5:34 PM EST
Civil Twilight 6:37 AM EST 5:59 PM EST
Nautical Twilight 6:09 AM EST 6:28 PM EST
Astronomical Twilight 5:40 AM EST 6:56 PM EST
Moon 11:55 PM EST (12/5) 11:50 AM EST (12/5)
Length of Visible Light 11h 22m
Length of Day
10h 31m
Waning Gibbous, 60% of the Moon is Illuminated
Dec 5
Waning Gibbous
Dec 6
Last Quarter
Dec 13
New
Dec 20
First Quarter
Dec 28
Full

Hourly Weather History & Observations

Time (EST) Temp. Dew Point Humidity Pressure Visibility Wind Dir Wind Speed Gust Speed Precip Events Conditions
12:53 AM 55.9 °F 53.1 °F 90% 30.20 in 10.0 mi NE 4.6 mph - N/A   Partly Cloudy
1:53 AM 55.0 °F 54.0 °F 96% 30.19 in 10.0 mi NE 3.5 mph - N/A   Clear
2:53 AM 55.9 °F 54.0 °F 93% 30.18 in 10.0 mi NNE 3.5 mph - N/A   Mostly Cloudy
3:53 AM 55.9 °F 55.0 °F 97% 30.16 in 10.0 mi NNE 5.8 mph - N/A   Mostly Cloudy
4:53 AM 55.9 °F 54.0 °F 93% 30.15 in 10.0 mi NE 4.6 mph - N/A   Clear
5:53 AM 55.0 °F 54.0 °F 96% 30.16 in 10.0 mi NE 4.6 mph - N/A   Clear
6:53 AM 54.0 °F 53.1 °F 97% 30.16 in 10.0 mi NE 4.6 mph - N/A   Clear
7:53 AM 57.9 °F 55.9 °F 93% 30.18 in 10.0 mi ENE 4.6 mph - N/A   Clear
9:53 AM 73.0 °F 62.1 °F 68% 30.19 in 10.0 mi ENE 5.8 mph - N/A   Clear
10:53 AM 77.0 °F 61.0 °F 58% 30.17 in 10.0 mi East 5.8 mph - N/A   Clear
11:53 AM 79.0 °F 59.0 °F 50% 30.15 in 10.0 mi SE 6.9 mph - N/A   Mostly Cloudy
12:53 PM 75.9 °F 60.1 °F 58% 30.12 in 10.0 mi ENE 9.2 mph - N/A   Overcast
1:53 PM 75.9 °F 61.0 °F 60% 30.09 in 10.0 mi Calm Calm - N/A   Overcast
2:53 PM 75.9 °F 60.1 °F 58% 30.08 in 10.0 mi Calm Calm - N/A   Overcast
3:53 PM 75.0 °F 60.1 °F 60% 30.07 in 10.0 mi East 3.5 mph - N/A   Overcast
4:53 PM 73.0 °F 61.0 °F 66% 30.07 in 10.0 mi Calm Calm - N/A   Overcast
5:53 PM 71.1 °F 63.0 °F 75% 30.07 in 10.0 mi SW 3.5 mph - N/A   Overcast
6:53 PM 70.0 °F 63.0 °F 78% 30.07 in 10.0 mi Calm Calm - N/A   Overcast
7:53 PM 64.0 °F 62.1 °F 93% 30.07 in 10.0 mi Calm Calm - N/A   Clear
8:36 PM 62.6 °F 60.8 °F 94% 30.07 in 9.0 mi Calm Calm - N/A   Partly Cloudy
8:53 PM 62.1 °F 61.0 °F 96% 30.07 in 10.0 mi Calm Calm - N/A   Clear
9:21 PM 62.6 °F 60.8 °F 94% 30.07 in 1.8 mi Calm Calm - N/A   Partly Cloudy
9:33 PM 60.8 °F 60.8 °F 100% 30.07 in 0.5 mi Calm Calm - N/A Fog Fog
9:43 PM 62.6 °F 60.8 °F 94% 30.07 in 2.0 mi Calm Calm - N/A   Partly Cloudy
9:53 PM 62.1 °F 61.0 °F 96% 30.07 in 5.0 mi Calm Calm - N/A   Partly Cloudy
10:12 PM 60.8 °F 60.8 °F 100% 30.07 in 1.5 mi Calm Calm - N/A   Partly Cloudy
10:21 PM 60.8 °F 59.0 °F 94% 30.07 in 0.5 mi Calm Calm - N/A Fog Fog
10:43 PM 60.8 °F 60.8 °F 100% 30.08 in 1.0 mi Calm Calm - N/A   Clear
10:53 PM 61.0 °F 61.0 °F 100% 30.08 in 1.2 mi Calm Calm - N/A   Scattered Clouds
11:19 PM 60.8 °F 60.8 °F 100% 30.08 in 3.0 mi Calm Calm - N/A   Overcast
11:53 PM 62.1 °F 60.1 °F 93% 30.08 in 5.0 mi Calm Calm - N/A   Mostly Cloudy